Wetterdaten: Montag, 06.01.2014
Datum Zeit Temperatur Luftfeuchte Luftdruck Regen Wind Richtung Richtung Taupunkt Windchill Windben
06.01.2014 00:00 -1,7 C 97 % 1015,7 hPa 0,0 l/m 0,2 km/h (0 Bft) O-NO 67 -2,1 C -2,0 C 0,0 km/h (0 Bft)
06.01.2014 00:05 -1,8 C 97 % 1015,8 hPa 0,0 l/m 0,0 km/h (0 Bft) O-NO 67 -2,2 C -2,1 C 0,0 km/h (0 Bft)
06.01.2014 00:10 -1,9 C 97 % 1015,8 hPa 0,0 l/m 0,0 km/h (0 Bft) O-NO 67 -2,3 C -2,1 C 0,0 km/h (0 Bft)
06.01.2014 00:15 -2,0 C 97 % 1015,8 hPa 0,0 l/m 0,0 km/h (0 Bft) O-NO 67 -2,4 C -2,2 C 0,0 km/h (0 Bft)
06.01.2014 00:21 -1,5 C 97 % 1015,8 hPa 0,0 l/m 0,0 km/h (0 Bft) O-NO 67 -1,9 C -2,2 C 0,0 km/h (0 Bft)
06.01.2014 00:25 -1,9 C 97 % 1015,6 hPa 0,0 l/m 0,0 km/h (0 Bft) O-NO 67 -2,3 C -2,2 C 0,0 km/h (0 Bft)
06.01.2014 00:30 -2,3 C 97 % 1015,6 hPa 0,0 l/m 0,0 km/h (0 Bft) O-NO 67 -2,7 C -2,4 C 0,0 km/h (0 Bft)
06.01.2014 00:35 -2,5 C 97 % 1015,6 hPa 0,0 l/m 0,0 km/h (0 Bft) O-NO 67 -2,9 C -2,6 C 0,0 km/h (0 Bft)
06.01.2014 00:40 -2,4 C 97 % 1015,6 hPa 0,0 l/m 0,0 km/h (0 Bft) O-NO 67 -2,8 C -2,9 C 0,0 km/h (0 Bft)
06.01.2014 00:45 -2,3 C 97 % 1016,1 hPa 0,0 l/m 0,0 km/h (0 Bft) O-NO 67 -2,7 C -2,9 C 0,0 km/h (0 Bft)
06.01.2014 00:50 -2,4 C 97 % 1016,1 hPa 0,0 l/m 0,0 km/h (0 Bft) O-NO 67 -2,8 C -2,9 C 0,0 km/h (0 Bft)
06.01.2014 00:55 -2,5 C 97 % 1016,1 hPa 0,0 l/m 0,0 km/h (0 Bft) O-NO 67 -2,9 C -2,9 C 0,0 km/h (0 Bft)
06.01.2014 01:00 -1,8 C 97 % 1016,1 hPa 0,0 l/m 1,1 km/h (1 Bft) O-NO 67 -2,2 C -2,8 C 4,5 km/h (1 Bft)
06.01.2014 01:05 -1,6 C 97 % 1016,2 hPa 0,0 l/m 1,9 km/h (1 Bft) O-NO 67 -2,0 C -2,4 C 5,1 km/h (1 Bft)
06.01.2014 01:10 -1,4 C 97 % 1016,2 hPa 0,0 l/m 2,3 km/h (1 Bft) O-NO 67 -1,8 C -2,0 C 5,3 km/h (1 Bft)
06.01.2014 01:15 -1,6 C 97 % 1016,2 hPa 0,0 l/m 2,7 km/h (1 Bft) O-NO 67 -2,0 C -2,2 C 2,9 km/h (1 Bft)
06.01.2014 01:20 -1,7 C 97 % 1016,2 hPa 0,0 l/m 1,9 km/h (1 Bft) O-NO 67 -2,1 C -1,7 C 0,0 km/h (0 Bft)
06.01.2014 01:25 -1,8 C 97 % 1016,6 hPa 0,0 l/m 0,8 km/h (0 Bft) O-NO 67 -2,2 C -1,8 C 0,0 km/h (0 Bft)
06.01.2014 01:30 -2,0 C 97 % 1016,6 hPa 0,0 l/m 0,0 km/h (0 Bft) O-NO 67 -2,4 C -1,9 C 0,0 km/h (0 Bft)
06.01.2014 01:35 -1,9 C 97 % 1016,6 hPa 0,0 l/m 0,0 km/h (0 Bft) O-NO 67 -2,3 C -1,8 C 0,0 km/h (0 Bft)
06.01.2014 01:40 -2,0 C 97 % 1016,6 hPa 0,0 l/m 0,2 km/h (0 Bft) O-NO 67 -2,4 C -1,8 C 0,0 km/h (0 Bft)
06.01.2014 01:45 -1,7 C 97 % 1016,6 hPa 0,0 l/m 0,2 km/h (0 Bft) O-NO 67 -2,1 C -1,9 C 0,0 km/h (0 Bft)
06.01.2014 01:50 -1,7 C 97 % 1016,6 hPa 0,0 l/m 0,2 km/h (0 Bft) O-NO 67 -2,1 C -2,0 C 0,0 km/h (0 Bft)
06.01.2014 01:55 -1,8 C 97 % 1016,6 hPa 0,0 l/m 0,2 km/h (0 Bft) O-NO 67 -2,2 C -2,0 C 0,0 km/h (0 Bft)
06.01.2014 02:00 -2,0 C 97 % 1016,6 hPa 0,0 l/m 0,0 km/h (0 Bft) O-NO 67 -2,4 C -2,2 C 0,0 km/h (0 Bft)
06.01.2014 02:05 -2,0 C 97 % 1016,4 hPa 0,0 l/m 0,0 km/h (0 Bft) O-NO 67 -2,4 C -2,4 C 0,0 km/h (0 Bft)
06.01.2014 02:10 -2,2 C 97 % 1016,4 hPa 0,0 l/m 0,0 km/h (0 Bft) O-NO 67 -2,6 C -2,5 C 0,0 km/h (0 Bft)
06.01.2014 02:15 -2,3 C 97 % 1016,4 hPa 0,0 l/m 0,0 km/h (0 Bft) O-NO 67 -2,7 C -2,7 C 0,0 km/h (0 Bft)
06.01.2014 02:20 -2,5 C 97 % 1016,4 hPa 0,0 l/m 0,0 km/h (0 Bft) O-NO 67 -2,9 C -2,7 C 0,0 km/h (0 Bft)
06.01.2014 02:23 -2,6 C 97 % 1017,0 hPa 0,0 l/m 0,0 km/h (0 Bft) O-NO 67 -3,0 C -2,8 C 0,0 km/h (0 Bft)
06.01.2014 02:25 -2,6 C 97 % 1017,0 hPa 0,0 l/m 0,0 km/h (0 Bft) O-NO 67 -3,0 C -2,8 C 0,0 km/h (0 Bft)
06.01.2014 02:30 -2,3 C 97 % 1017,0 hPa 0,0 l/m 0,2 km/h (0 Bft) O-NO 67 -2,7 C -2,9 C 2,1 km/h (1 Bft)
06.01.2014 02:35 -2,1 C 97 % 1017,0 hPa 0,0 l/m 0,3 km/h (0 Bft) O-NO 67 -2,5 C -2,9 C 3,1 km/h (1 Bft)
06.01.2014 02:40 -2,2 C 97 % 1017,0 hPa 0,0 l/m 0,3 km/h (0 Bft) O-NO 67 -2,6 C -2,9 C 0,0 km/h (0 Bft)
06.01.2014 02:45 -2,3 C 97 % 1016,5 hPa 0,0 l/m 0,2 km/h (0 Bft) O-NO 67 -2,7 C -2,8 C 0,0 km/h (0 Bft)
06.01.2014 02:50 -2,6 C 97 % 1016,5 hPa 0,0 l/m 0,2 km/h (0 Bft) O-NO 67 -3,0 C -2,7 C 0,0 km/h (0 Bft)
06.01.2014 02:55 -2,8 C 97 % 1016,5 hPa 0,0 l/m 0,3 km/h (0 Bft) O-NO 67 -3,2 C -3,0 C 0,0 km/h (0 Bft)
06.01.2014 03:00 -2,9 C 97 % 1016,5 hPa 0,0 l/m 0,2 km/h (0 Bft) O-NO 67 -3,3 C -3,2 C 0,0 km/h (0 Bft)
06.01.2014 03:05 -2,9 C 97 % 1016,6 hPa 0,0 l/m 0,2 km/h (0 Bft) O-NO 67 -3,3 C -3,3 C 0,0 km/h (0 Bft)
06.01.2014 03:10 -2,8 C 97 % 1016,6 hPa 0,0 l/m 0,6 km/h (0 Bft) O-NO 67 -3,2 C -3,4 C 1,8 km/h (1 Bft)
06.01.2014 03:15 -2,7 C 97 % 1016,6 hPa 0,0 l/m 0,6 km/h (0 Bft) O-NO 67 -3,1 C -3,3 C 0,0 km/h (0 Bft)
06.01.2014 03:20 -3,2 C 97 % 1016,6 hPa 0,0 l/m 0,2 km/h (0 Bft) O-NO 67 -3,6 C -3,4 C 0,0 km/h (0 Bft)
06.01.2014 03:25 -3,3 C 97 % 1016,4 hPa 0,0 l/m 0,0 km/h (0 Bft) O-NO 67 -3,7 C -3,5 C 0,0 km/h (0 Bft)
06.01.2014 03:30 -3,5 C 96 % 1016,4 hPa 0,0 l/m 0,0 km/h (0 Bft) O-NO 67 -4,0 C -3,6 C 0,0 km/h (0 Bft)
06.01.2014 03:35 -3,5 C 96 % 1016,4 hPa 0,0 l/m 0,0 km/h (0 Bft) O-NO 67 -4,0 C -3,8 C 0,0 km/h (0 Bft)
06.01.2014 03:40 -3,4 C 96 % 1016,4 hPa 0,0 l/m 0,0 km/h (0 Bft) O-NO 67 -3,9 C -3,8 C 0,0 km/h (0 Bft)
06.01.2014 03:45 -3,3 C 96 % 1016,4 hPa 0,0 l/m 0,0 km/h (0 Bft) O-NO 67 -3,8 C -3,8 C 0,0 km/h (0 Bft)
06.01.2014 03:50 -3,4 C 96 % 1016,4 hPa 0,0 l/m 0,0 km/h (0 Bft) O-NO 67 -3,9 C -3,6 C 0,0 km/h (0 Bft)
06.01.2014 03:55 -3,4 C 96 % 1016,4 hPa 0,0 l/m 0,0 km/h (0 Bft) O-NO 67 -3,9 C -3,7 C 0,0 km/h (0 Bft)
06.01.2014 04:00 -3,3 C 96 % 1016,4 hPa 0,0 l/m 0,3 km/h (0 Bft) O-NO 67 -3,8 C -3,7 C 2,6 km/h (1 Bft)
06.01.2014 04:05 -3,1 C 96 % 1016,2 hPa 0,0 l/m 0,5 km/h (0 Bft) O-NO 67 -3,6 C -3,6 C 0,0 km/h (0 Bft)
06.01.2014 04:10 -3,1 C 96 % 1016,2 hPa 0,0 l/m 1,0 km/h (0 Bft) O-NO 67 -3,6 C -3,5 C 6,6 km/h (2 Bft)
06.01.2014 04:15 -3,2 C 96 % 1016,2 hPa 0,0 l/m 1,0 km/h (0 Bft) O-NO 67 -3,7 C -3,2 C 1,8 km/h (1 Bft)
06.01.2014 04:20 -2,9 C 96 % 1016,2 hPa 0,0 l/m 1,3 km/h (1 Bft) O-NO 67 -3,4 C -3,2 C 0,0 km/h (0 Bft)
06.01.2014 04:25 -2,9 C 96 % 1016,1 hPa 0,0 l/m 1,1 km/h (1 Bft) O-NO 67 -3,4 C -3,1 C 0,0 km/h (0 Bft)
06.01.2014 04:30 -2,9 C 96 % 1016,1 hPa 0,0 l/m 1,0 km/h (0 Bft) O-NO 67 -3,4 C -2,9 C 0,0 km/h (0 Bft)
06.01.2014 04:35 -3,0 C 96 % 1016,1 hPa 0,0 l/m 0,6 km/h (0 Bft) O-NO 67 -3,5 C -3,0 C 0,0 km/h (0 Bft)
06.01.2014 04:40 -2,7 C 96 % 1016,1 hPa 0,0 l/m 0,2 km/h (0 Bft) O-NO 67 -3,2 C -3,2 C 0,0 km/h (0 Bft)
06.01.2014 04:45 -2,9 C 96 % 1016,1 hPa 0,0 l/m 0,2 km/h (0 Bft) O-NO 67 -3,4 C -3,3 C 0,0 km/h (0 Bft)
06.01.2014 04:50 -3,1 C 96 % 1016,1 hPa 0,0 l/m 0,0 km/h (0 Bft) O-NO 67 -3,6 C -3,4 C 0,0 km/h (0 Bft)
06.01.2014 04:55 -2,9 C 96 % 1016,1 hPa 0,0 l/m 0,0 km/h (0 Bft) O-NO 67 -3,4 C -3,6 C 0,0 km/h (0 Bft)
06.01.2014 05:00 -3,0 C 96 % 1016,1 hPa 0,0 l/m 0,2 km/h (0 Bft) O-NO 67 -3,5 C -3,6 C 0,0 km/h (0 Bft)
06.01.2014 05:05 -3,1 C 96 % 1016,1 hPa 0,0 l/m 0,3 km/h (0 Bft) O-NO 67 -3,6 C -3,6 C 0,0 km/h (0 Bft)
06.01.2014 05:10 -2,9 C 96 % 1016,1 hPa 0,0 l/m 0,3 km/h (0 Bft) O-NO 67 -3,4 C -3,5 C 0,0 km/h (0 Bft)
06.01.2014 05:15 -3,3 C 96 % 1016,1 hPa 0,0 l/m 0,2 km/h (0 Bft) O-NO 67 -3,8 C -3,6 C 0,0 km/h (0 Bft)
06.01.2014 05:20 -3,4 C 96 % 1016,1 hPa 0,0 l/m 0,3 km/h (0 Bft) O-NO 67 -3,9 C -3,7 C 1,9 km/h (1 Bft)
06.01.2014 05:25 -3,1 C 96 % 1016,2 hPa 0,0 l/m 0,3 km/h (0 Bft) O-NO 67 -3,6 C -3,7 C 0,0 km/h (0 Bft)
06.01.2014 05:30 -3,3 C 96 % 1016,2 hPa 0,0 l/m 0,2 km/h (0 Bft) O-NO 67 -3,8 C -3,8 C 0,0 km/h (0 Bft)
06.01.2014 05:35 -3,2 C 96 % 1016,2 hPa 0,0 l/m 0,2 km/h (0 Bft) O-NO 67 -3,7 C -3,8 C 2,1 km/h (1 Bft)
06.01.2014 05:40 -3,4 C 96 % 1016,2 hPa 0,0 l/m 0,2 km/h (0 Bft) O-NO 67 -3,9 C -3,9 C 0,0 km/h (0 Bft)
06.01.2014 05:45 -3,3 C 96 % 1016,1 hPa 0,0 l/m 0,2 km/h (0 Bft) O-NO 67 -3,8 C -3,9 C 0,0 km/h (0 Bft)
06.01.2014 05:50 -3,5 C 96 % 1016,1 hPa 0,0 l/m 0,2 km/h (0 Bft) O-NO 67 -4,0 C -3,9 C 0,0 km/h (0 Bft)
06.01.2014 05:55 -3,2 C 96 % 1016,1 hPa 0,0 l/m 0,5 km/h (0 Bft) O-NO 67 -3,7 C -3,7 C 0,0 km/h (0 Bft)
06.01.2014 06:00 -3,1 C 96 % 1016,1 hPa 0,0 l/m 1,0 km/h (0 Bft) O-NO 67 -3,6 C -3,3 C 0,0 km/h (0 Bft)
06.01.2014 06:05 -3,2 C 96 % 1016,1 hPa 0,0 l/m 0,8 km/h (0 Bft) O-NO 67 -3,7 C -3,2 C 0,0 km/h (0 Bft)
06.01.2014 06:10 -2,9 C 96 % 1016,1 hPa 0,0 l/m 0,5 km/h (0 Bft) O-NO 67 -3,4 C -3,0 C 1,6 km/h (1 Bft)
06.01.2014 06:15 -2,8 C 96 % 1016,1 hPa 0,0 l/m 1,1 km/h (1 Bft) O-NO 67 -3,3 C -2,8 C 3,1 km/h (1 Bft)
06.01.2014 06:20 -2,6 C 96 % 1016,1 hPa 0,0 l/m 1,8 km/h (1 Bft) O-NO 67 -3,1 C -2,6 C 7,2 km/h (2 Bft)
06.01.2014 06:25 -2,4 C 96 % 1016,1 hPa 0,0 l/m 1,4 km/h (1 Bft) O-NO 67 -2,9 C -2,5 C 2,7 km/h (1 Bft)
06.01.2014 06:30 -2,1 C 96 % 1016,1 hPa 0,0 l/m 1,0 km/h (0 Bft) O-NO 67 -2,6 C -2,5 C 0,0 km/h (0 Bft)
06.01.2014 06:35 -2,0 C 96 % 1016,1 hPa 0,0 l/m 1,0 km/h (0 Bft) O-NO 67 -2,6 C -2,6 C 1,9 km/h (1 Bft)
06.01.2014 06:40 -2,1 C 96 % 1016,1 hPa 0,0 l/m 1,3 km/h (1 Bft) O-NO 67 -2,6 C -2,6 C 2,7 km/h (1 Bft)
06.01.2014 06:45 -2,3 C 96 % 1016,2 hPa 0,0 l/m 1,8 km/h (1 Bft) O-NO 67 -2,8 C -2,6 C 0,0 km/h (0 Bft)
06.01.2014 06:50 -2,3 C 96 % 1016,2 hPa 0,0 l/m 1,8 km/h (1 Bft) O-NO 67 -2,8 C -2,6 C 1,8 km/h (1 Bft)
06.01.2014 06:55 -2,5 C 96 % 1016,2 hPa 0,0 l/m 1,3 km/h (1 Bft) O-NO 67 -3,0 C -2,6 C 2,9 km/h (1 Bft)
06.01.2014 07:00 -2,7 C 96 % 1016,2 hPa 0,0 l/m 1,1 km/h (1 Bft) O-NO 67 -3,2 C -2,8 C 3,5 km/h (1 Bft)
06.01.2014 07:05 -2,6 C 96 % 1016,4 hPa 0,0 l/m 1,3 km/h (1 Bft) O-NO 67 -3,1 C -2,8 C 4,5 km/h (1 Bft)
06.01.2014 07:10 -2,5 C 96 % 1016,4 hPa 0,0 l/m 1,1 km/h (1 Bft) O-NO 67 -3,0 C -2,8 C 3,1 km/h (1 Bft)
06.01.2014 07:15 -2,4 C 96 % 1016,4 hPa 0,0 l/m 1,1 km/h (1 Bft) O-NO 67 -2,9 C -2,7 C 0,0 km/h (0 Bft)
06.01.2014 07:20 -2,4 C 96 % 1016,4 hPa 0,0 l/m 2,1 km/h (1 Bft) O-NO 67 -2,9 C -2,4 C 5,3 km/h (1 Bft)
06.01.2014 07:25 -2,4 C 96 % 1016,2 hPa 0,0 l/m 2,1 km/h (1 Bft) O-NO 67 -2,9 C -2,3 C 2,6 km/h (1 Bft)
06.01.2014 07:30 -2,4 C 96 % 1016,2 hPa 0,0 l/m 1,4 km/h (1 Bft) O-NO 67 -2,9 C -2,4 C 3,5 km/h (1 Bft)
06.01.2014 07:35 -2,2 C 96 % 1016,2 hPa 0,0 l/m 1,8 km/h (1 Bft) O-NO 67 -2,7 C -2,3 C 4,3 km/h (1 Bft)
06.01.2014 07:40 -2,2 C 96 % 1016,2 hPa 0,0 l/m 2,7 km/h (1 Bft) O-NO 67 -2,7 C -2,6 C 6,1 km/h (2 Bft)
06.01.2014 07:45 -2,3 C 96 % 1016,1 hPa 0,0 l/m 2,6 km/h (1 Bft) O-NO 67 -2,8 C -2,4 C 2,9 km/h (1 Bft)
06.01.2014 07:50 -2,1 C 96 % 1016,1 hPa 0,0 l/m 2,4 km/h (1 Bft) O-NO 67 -2,6 C -2,2 C 3,1 km/h (1 Bft)
06.01.2014 07:55 -2,2 C 96 % 1016,1 hPa 0,0 l/m 2,6 km/h (1 Bft) O-NO 67 -2,7 C -2,2 C 3,1 km/h (1 Bft)
06.01.2014 08:00 -2,1 C 96 % 1016,1 hPa 0,0 l/m 1,9 km/h (1 Bft) O-NO 67 -2,6 C -2,0 C 0,0 km/h (0 Bft)
06.01.2014 08:05 -1,9 C 96 % 1016,1 hPa 0,0 l/m 2,1 km/h (1 Bft) O-NO 67 -2,5 C -2,0 C 3,2 km/h (1 Bft)
06.01.2014 08:10 -1,8 C 96 % 1016,1 hPa 0,0 l/m 2,4 km/h (1 Bft) O-NO 67 -2,4 C -2,1 C 7,4 km/h (2 Bft)
06.01.2014 08:15 -2,1 C 96 % 1016,1 hPa 0,0 l/m 2,6 km/h (1 Bft) O-NO 67 -2,6 C -2,1 C 0,0 km/h (0 Bft)
06.01.2014 08:20 -2,1 C 96 % 1016,1 hPa 0,0 l/m 1,8 km/h (1 Bft) O-NO 67 -2,6 C -1,9 C 0,0 km/h (0 Bft)
06.01.2014 08:23 -1,9 C 96 % 1016,2 hPa 0,0 l/m 1,3 km/h (1 Bft) O-NO 67 -2,5 C -1,9 C 0,0 km/h (0 Bft)
06.01.2014 08:25 -1,9 C 96 % 1016,2 hPa 0,0 l/m 1,3 km/h (1 Bft) O-NO 67 -2,5 C -1,9 C 0,0 km/h (0 Bft)
06.01.2014 08:30 -1,9 C 96 % 1016,2 hPa 0,0 l/m 1,1 km/h (1 Bft) O-NO 67 -2,5 C -2,1 C 0,0 km/h (0 Bft)
06.01.2014 08:35 -1,9 C 96 % 1016,2 hPa 0,0 l/m 0,8 km/h (0 Bft) O-NO 67 -2,5 C -2,2 C 6,1 km/h (2 Bft)
06.01.2014 08:40 -1,7 C 96 % 1016,2 hPa 0,0 l/m 1,6 km/h (1 Bft) O-NO 67 -2,3 C -2,1 C 2,9 km/h (1 Bft)
06.01.2014 08:45 -2,0 C 96 % 1016,6 hPa 0,0 l/m 2,4 km/h (1 Bft) O-NO 67 -2,6 C -2,2 C 3,4 km/h (1 Bft)
06.01.2014 08:50 -1,8 C 96 % 1016,6 hPa 0,0 l/m 3,1 km/h (1 Bft) O-NO 67 -2,4 C -2,4 C 0,0 km/h (0 Bft)
06.01.2014 08:55 -1,7 C 96 % 1016,6 hPa 0,0 l/m 2,7 km/h (1 Bft) O-NO 67 -2,3 C -2,1 C 7,1 km/h (2 Bft)
06.01.2014 09:00 -1,6 C 96 % 1016,6 hPa 0,0 l/m 1,8 km/h (1 Bft) O-NO 67 -2,2 C -1,7 C 1,9 km/h (1 Bft)
06.01.2014 09:05 -1,7 C 96 % 1017,0 hPa 0,0 l/m 2,1 km/h (1 Bft) O-NO 67 -2,3 C -1,6 C 0,0 km/h (0 Bft)
06.01.2014 09:10 -1,6 C 96 % 1017,0 hPa 0,0 l/m 1,1 km/h (1 Bft) O-NO 67 -2,2 C -1,7 C 0,0 km/h (0 Bft)
06.01.2014 09:15 -1,6 C 96 % 1017,0 hPa 0,0 l/m 0,5 km/h (0 Bft) O-NO 67 -2,2 C -1,7 C 0,0 km/h (0 Bft)
06.01.2014 09:20 -1,6 C 96 % 1017,0 hPa 0,0 l/m 0,5 km/h (0 Bft) O-NO 67 -2,2 C -1,8 C 0,0 km/h (0 Bft)
06.01.2014 09:25 -1,6 C 96 % 1017,4 hPa 0,0 l/m 0,3 km/h (0 Bft) O-NO 67 -2,2 C -1,8 C 0,0 km/h (0 Bft)
06.01.2014 09:30 -1,6 C 96 % 1017,4 hPa 0,0 l/m 1,3 km/h (1 Bft) O-NO 67 -2,2 C -1,7 C 4,3 km/h (1 Bft)
06.01.2014 09:35 -1,4 C 96 % 1017,4 hPa 0,0 l/m 1,4 km/h (1 Bft) O-NO 67 -2,0 C -1,6 C 2,4 km/h (1 Bft)
06.01.2014 09:40 -1,2 C 96 % 1017,4 hPa 0,0 l/m 1,1 km/h (1 Bft) O-NO 67 -1,8 C -1,4 C 4,3 km/h (1 Bft)
06.01.2014 09:45 -1,2 C 96 % 1017,6 hPa 0,0 l/m 1,0 km/h (0 Bft) O-NO 67 -1,8 C -1,3 C 0,0 km/h (0 Bft)
06.01.2014 09:50 -1,2 C 96 % 1017,6 hPa 0,0 l/m 1,1 km/h (1 Bft) O-NO 67 -1,8 C -1,2 C 3,4 km/h (1 Bft)
06.01.2014 09:55 -1,0 C 96 % 1017,6 hPa 0,0 l/m 1,3 km/h (1 Bft) O-NO 67 -1,6 C -1,1 C 3,1 km/h (1 Bft)
06.01.2014 10:00 -0,9 C 97 % 1017,6 hPa 0,0 l/m 1,8 km/h (1 Bft) O-NO 67 -1,3 C -0,9 C 4,2 km/h (1 Bft)
06.01.2014 10:05 -0,7 C 97 % 1017,5 hPa 0,0 l/m 1,4 km/h (1 Bft) O-NO 67 -1,1 C -0,9 C 2,9 km/h (1 Bft)
06.01.2014 10:10 -0,5 C 97 % 1017,5 hPa 0,0 l/m 1,9 km/h (1 Bft) O-NO 67 -0,9 C -0,7 C 3,4 km/h (1 Bft)
06.01.2014 10:15 -0,5 C 97 % 1017,5 hPa 0,0 l/m 2,1 km/h (1 Bft) O-NO 67 -0,9 C -0,6 C 4,0 km/h (1 Bft)
06.01.2014 10:20 -0,5 C 97 % 1017,5 hPa 0,0 l/m 2,1 km/h (1 Bft) O-NO 67 -0,9 C -0,4 C 2,9 km/h (1 Bft)
06.01.2014 10:25 -0,3 C 97 % 1017,4 hPa 0,0 l/m 1,6 km/h (1 Bft) O-NO 67 -0,7 C -0,3 C 2,1 km/h (1 Bft)
06.01.2014 10:30 -0,2 C 97 % 1017,4 hPa 0,0 l/m 1,8 km/h (1 Bft) O-NO 67 -0,6 C -0,1 C 1,8 km/h (1 Bft)
06.01.2014 10:35 -0,1 C 97 % 1017,4 hPa 0,0 l/m 1,6 km/h (1 Bft) O-NO 67 -0,5 C 0,0 C 0,0 km/h (0 Bft)
06.01.2014 10:40 0,1 C 97 % 1017,4 hPa 0,0 l/m 1,0 km/h (0 Bft) O-NO 67 -0,3 C 0,2 C 3,7 km/h (1 Bft)
06.01.2014 10:45 0,4 C 97 % 1017,4 hPa 0,0 l/m 1,1 km/h (1 Bft) O-NO 67 -0,0 C 0,3 C 0,0 km/h (0 Bft)
06.01.2014 10:50 0,7 C 97 % 1017,4 hPa 0,0 l/m 1,3 km/h (1 Bft) O-NO 67 0,3 C 0,4 C 0,0 km/h (0 Bft)
06.01.2014 10:55 0,8 C 97 % 1017,4 hPa 0,0 l/m 0,8 km/h (0 Bft) O-NO 67 0,4 C 0,4 C 0,0 km/h (0 Bft)
06.01.2014 11:00 1,0 C 97 % 1017,4 hPa 0,0 l/m 0,6 km/h (0 Bft) O-NO 67 0,6 C 0,5 C 3,2 km/h (1 Bft)
06.01.2014 11:05 1,0 C 97 % 1017,2 hPa 0,0 l/m 1,3 km/h (1 Bft) O-NO 67 0,6 C 0,7 C 3,7 km/h (1 Bft)
06.01.2014 11:10 1,0 C 97 % 1017,2 hPa 0,0 l/m 2,1 km/h (1 Bft) O-NO 67 0,6 C 1,3 C 1,9 km/h (1 Bft)
06.01.2014 11:15 1,0 C 97 % 1017,2 hPa 0,0 l/m 1,6 km/h (1 Bft) O-NO 67 0,6 C 1,9 C 2,6 km/h (1 Bft)
06.01.2014 11:20 1,6 C 97 % 1017,2 hPa 0,0 l/m 1,8 km/h (1 Bft) O 90 1,2 C 2,9 C 5,5 km/h (1 Bft)
06.01.2014 11:25 2,1 C 96 % 1017,3 hPa 0,0 l/m 2,3 km/h (1 Bft) O 90 1,5 C 3,4 C 0,0 km/h (0 Bft)
06.01.2014 11:30 3,0 C 95 % 1017,3 hPa 0,0 l/m 1,4 km/h (1 Bft) NO 45 2,3 C 4,0 C 0,0 km/h (0 Bft)
06.01.2014 11:35 3,1 C 95 % 1017,3 hPa 0,0 l/m 0,5 km/h (0 Bft) NO 45 2,4 C 4,2 C 0,0 km/h (0 Bft)
06.01.2014 11:40 3,1 C 94 % 1017,3 hPa 0,0 l/m 0,5 km/h (0 Bft) W 270 2,2 C 4,8 C 0,0 km/h (0 Bft)
06.01.2014 11:45 3,2 C 94 % 1017,5 hPa 0,0 l/m 0,2 km/h (0 Bft) N-NW 337 2,3 C 5,1 C 0,0 km/h (0 Bft)
06.01.2014 11:50 3,3 C 94 % 1017,5 hPa 0,0 l/m 0,0 km/h (0 Bft) N 360 2,4 C 5,4 C 0,0 km/h (0 Bft)
06.01.2014 11:55 3,5 C 93 % 1017,5 hPa 0,0 l/m 0,0 km/h (0 Bft) NO 45 2,5 C 5,6 C 0,0 km/h (0 Bft)
06.01.2014 12:00 3,7 C 93 % 1017,5 hPa 0,0 l/m 0,2 km/h (0 Bft) N-NO 22 2,7 C 5,8 C 0,0 km/h (0 Bft)
06.01.2014 12:05 4,0 C 93 % 1017,8 hPa 0,0 l/m 0,2 km/h (0 Bft) N-NO 22 3,0 C 5,9 C 0,0 km/h (0 Bft)
06.01.2014 12:10 4,3 C 92 % 1017,8 hPa 0,0 l/m 0,0 km/h (0 Bft) N 360 3,1 C 6,2 C 0,0 km/h (0 Bft)
06.01.2014 12:15 4,4 C 92 % 1017,8 hPa 0,0 l/m 0,2 km/h (0 Bft) N 360 3,2 C 6,3 C 0,0 km/h (0 Bft)
06.01.2014 12:20 4,5 C 91 % 1017,8 hPa 0,0 l/m 0,3 km/h (0 Bft) O 90 3,2 C 6,3 C 0,0 km/h (0 Bft)
06.01.2014 12:25 4,7 C 90 % 1017,9 hPa 0,0 l/m 0,2 km/h (0 Bft) NO 45 3,2 C 6,3 C 1,8 km/h (1 Bft)
06.01.2014 12:30 4,5 C 90 % 1017,9 hPa 0,0 l/m 0,2 km/h (0 Bft) O 90 3,0 C 6,3 C 0,0 km/h (0 Bft)
06.01.2014 12:35 4,3 C 90 % 1017,9 hPa 0,0 l/m 0,2 km/h (0 Bft) O 90 2,8 C 6,3 C 0,0 km/h (0 Bft)
06.01.2014 12:40 4,4 C 89 % 1017,9 hPa 0,0 l/m 0,3 km/h (0 Bft) O-SO 112 2,7 C 6,4 C 2,3 km/h (1 Bft)
06.01.2014 12:45 4,6 C 89 % 1017,7 hPa 0,0 l/m 0,3 km/h (0 Bft) S-SW 202 2,9 C 6,5 C 0,0 km/h (0 Bft)
06.01.2014 12:50 4,3 C 89 % 1017,7 hPa 0,0 l/m 0,2 km/h (0 Bft) O 90 2,7 C 6,5 C 0,0 km/h (0 Bft)
06.01.2014 12:55 4,9 C 89 % 1017,7 hPa 0,0 l/m 0,0 km/h (0 Bft) O 90 3,2 C 6,5 C 0,0 km/h (0 Bft)
06.01.2014 13:00 5,3 C 88 % 1017,7 hPa 0,0 l/m 0,3 km/h (0 Bft) O-SO 112 3,5 C 6,6 C 2,7 km/h (1 Bft)
06.01.2014 13:05 5,3 C 88 % 1017,6 hPa 0,0 l/m 1,6 km/h (1 Bft) NO 45 3,5 C 6,7 C 0,0 km/h (0 Bft)
06.01.2014 13:10 5,2 C 88 % 1017,6 hPa 0,0 l/m 2,3 km/h (1 Bft) NO 45 3,4 C 6,7 C 2,9 km/h (1 Bft)
06.01.2014 13:15 5,2 C 88 % 1017,6 hPa 0,0 l/m 1,1 km/h (1 Bft) O-SO 112 3,4 C 6,9 C 0,0 km/h (0 Bft)
06.01.2014 13:20 5,3 C 88 % 1017,6 hPa 0,0 l/m 0,3 km/h (0 Bft) S 180 3,5 C 7,1 C 0,0 km/h (0 Bft)
06.01.2014 13:25 5,7 C 88 % 1017,3 hPa 0,0 l/m 0,0 km/h (0 Bft) O-SO 112 3,9 C 7,2 C 0,0 km/h (0 Bft)
06.01.2014 13:30 5,7 C 88 % 1017,3 hPa 0,0 l/m 0,2 km/h (0 Bft) O-NO 67 3,9 C 7,3 C 0,0 km/h (0 Bft)
06.01.2014 13:35 5,4 C 88 % 1017,3 hPa 0,0 l/m 0,2 km/h (0 Bft) S 180 3,6 C 7,3 C 0,0 km/h (0 Bft)
06.01.2014 13:40 5,2 C 88 % 1017,3 hPa 0,0 l/m 0,2 km/h (0 Bft) S 180 3,4 C 7,3 C 0,0 km/h (0 Bft)
06.01.2014 13:45 5,0 C 87 % 1017,3 hPa 0,0 l/m 0,2 km/h (0 Bft) NO 45 3,0 C 7,1 C 1,8 km/h (1 Bft)
06.01.2014 13:50 5,1 C 88 % 1017,3 hPa 0,0 l/m 0,5 km/h (0 Bft) O-NO 67 3,3 C 8,5 C 0,0 km/h (0 Bft)
06.01.2014 13:55 5,4 C 88 % 1017,3 hPa 0,0 l/m 0,8 km/h (0 Bft) NO 45 3,6 C 10,4 C 1,8 km/h (1 Bft)
06.01.2014 14:00 5,8 C 88 % 1017,3 hPa 0,0 l/m 0,8 km/h (0 Bft) NO 45 4,0 C 12,0 C 2,4 km/h (1 Bft)
06.01.2014 14:05 6,1 C 87 % 1017,1 hPa 0,0 l/m 1,0 km/h (0 Bft) O 90 4,1 C 12,9 C 0,0 km/h (0 Bft)
06.01.2014 14:10 6,8 C 85 % 1017,1 hPa 0,0 l/m 0,5 km/h (0 Bft) O 90 4,5 C 13,8 C 0,0 km/h (0 Bft)
06.01.2014 14:15 7,2 C 84 % 1017,1 hPa 0,0 l/m 0,2 km/h (0 Bft) O 90 4,7 C 14,4 C 1,9 km/h (1 Bft)
06.01.2014 14:18 6,7 C 84 % 1017,1 hPa 0,0 l/m 0,2 km/h (0 Bft) O-SO 112 4,2 C 14,6 C 0,0 km/h (0 Bft)
06.01.2014 14:20 6,7 C 84 % 1017,1 hPa 0,0 l/m 0,2 km/h (0 Bft) O-SO 112 4,2 C 14,6 C 0,0 km/h (0 Bft)
06.01.2014 14:25 6,6 C 83 % 1017,2 hPa 0,0 l/m 0,2 km/h (0 Bft) O-NO 67 3,9 C 14,9 C 0,0 km/h (0 Bft)
06.01.2014 14:30 6,4 C 84 % 1017,2 hPa 0,0 l/m 0,5 km/h (0 Bft) NO 45 3,9 C 14,0 C 0,0 km/h (0 Bft)
06.01.2014 14:35 6,3 C 84 % 1017,2 hPa 0,0 l/m 0,6 km/h (0 Bft) NO 45 3,8 C 12,8 C 1,6 km/h (1 Bft)
06.01.2014 14:40 6,5 C 84 % 1017,2 hPa 0,0 l/m 1,1 km/h (1 Bft) NO 45 4,0 C 11,6 C 3,1 km/h (1 Bft)
06.01.2014 14:45 6,2 C 85 % 1017,4 hPa 0,0 l/m 1,3 km/h (1 Bft) O-NO 67 3,9 C 11,9 C 0,0 km/h (0 Bft)
06.01.2014 14:50 5,9 C 86 % 1017,4 hPa 0,0 l/m 0,5 km/h (0 Bft) O 90 3,7 C 13,0 C 0,0 km/h (0 Bft)
06.01.2014 14:55 5,4 C 86 % 1017,4 hPa 0,0 l/m 0,2 km/h (0 Bft) O 90 3,3 C 12,8 C 0,0 km/h (0 Bft)
06.01.2014 15:00 5,2 C 87 % 1017,4 hPa 0,0 l/m 0,2 km/h (0 Bft) O-SO 112 3,2 C 11,7 C 0,0 km/h (0 Bft)
06.01.2014 15:05 5,4 C 87 % 1017,4 hPa 0,0 l/m 0,5 km/h (0 Bft) O-SO 112 3,4 C 10,9 C 3,7 km/h (1 Bft)
06.01.2014 15:10 5,6 C 86 % 1017,4 hPa 0,0 l/m 1,6 km/h (1 Bft) NO 45 3,4 C 9,6 C 3,2 km/h (1 Bft)
06.01.2014 15:15 5,4 C 86 % 1017,4 hPa 0,0 l/m 1,9 km/h (1 Bft) O-NO 67 3,3 C 8,8 C 1,9 km/h (1 Bft)
06.01.2014 15:20 5,5 C 86 % 1017,4 hPa 0,0 l/m 1,1 km/h (1 Bft) O-NO 67 3,3 C 7,8 C 0,0 km/h (0 Bft)
06.01.2014 15:25 4,9 C 86 % 1017,2 hPa 0,0 l/m 0,6 km/h (0 Bft) O-NO 67 2,8 C 7,3 C 0,0 km/h (0 Bft)
06.01.2014 15:30 4,8 C 87 % 1017,2 hPa 0,0 l/m 0,0 km/h (0 Bft) O-NO 67 2,8 C 6,5 C 0,0 km/h (0 Bft)
06.01.2014 15:35 4,3 C 87 % 1017,2 hPa 0,0 l/m 1,0 km/h (0 Bft) S-SO 157 2,3 C 6,2 C 6,0 km/h (2 Bft)
06.01.2014 15:40 4,3 C 87 % 1017,2 hPa 0,0 l/m 2,3 km/h (1 Bft) O 90 2,3 C 6,0 C 2,3 km/h (1 Bft)
06.01.2014 15:45 4,4 C 88 % 1017,2 hPa 0,0 l/m 1,6 km/h (1 Bft) O 90 2,6 C 5,6 C 0,0 km/h (0 Bft)
06.01.2014 15:50 4,3 C 88 % 1017,2 hPa 0,0 l/m 0,6 km/h (0 Bft) O 90 2,5 C 5,3 C 0,0 km/h (0 Bft)
06.01.2014 15:55 3,8 C 88 % 1017,2 hPa 0,0 l/m 0,3 km/h (0 Bft) O 90 2,0 C 5,0 C 0,0 km/h (0 Bft)
06.01.2014 16:00 3,8 C 88 % 1017,2 hPa 0,0 l/m 0,3 km/h (0 Bft) O 90 2,0 C 4,6 C 0,0 km/h (0 Bft)
06.01.2014 16:05 3,7 C 88 % 1017,1 hPa 0,0 l/m 0,3 km/h (0 Bft) O 90 1,9 C 4,3 C 0,0 km/h (0 Bft)
06.01.2014 16:10 3,8 C 88 % 1017,1 hPa 0,0 l/m 0,2 km/h (0 Bft) O 90 2,0 C 3,9 C 1,8 km/h (1 Bft)
06.01.2014 16:15 3,3 C 88 % 1017,1 hPa 0,0 l/m 0,3 km/h (0 Bft) NO 45 1,5 C 3,8 C 3,2 km/h (1 Bft)
06.01.2014 16:20 3,7 C 87 % 1017,1 hPa 0,0 l/m 0,5 km/h (0 Bft) N-NO 22 1,7 C 3,5 C 0,0 km/h (0 Bft)
06.01.2014 16:25 3,0 C 87 % 1017,0 hPa 0,0 l/m 0,3 km/h (0 Bft) N 360 1,1 C 3,4 C 0,0 km/h (0 Bft)
06.01.2014 16:30 3,2 C 87 % 1017,0 hPa 0,0 l/m 2,1 km/h (1 Bft) O 90 1,2 C 3,2 C 7,6 km/h (2 Bft)
06.01.2014 16:35 3,3 C 87 % 1017,0 hPa 0,0 l/m 3,7 km/h (1 Bft) O-SO 112 1,3 C 2,7 C 4,8 km/h (1 Bft)
06.01.2014 16:40 3,6 C 86 % 1017,0 hPa 0,0 l/m 3,9 km/h (1 Bft) O-NO 67 1,5 C 2,6 C 6,4 km/h (2 Bft)
06.01.2014 16:45 3,7 C 85 % 1016,9 hPa 0,0 l/m 3,1 km/h (1 Bft) NO 45 1,4 C 3,1 C 2,6 km/h (1 Bft)
06.01.2014 16:50 2,8 C 85 % 1016,9 hPa 0,0 l/m 1,4 km/h (1 Bft) NO 45 0,5 C 2,9 C 0,0 km/h (0 Bft)
06.01.2014 16:55 2,2 C 86 % 1016,9 hPa 0,0 l/m 0,3 km/h (0 Bft) N-NO 22 0,1 C 2,6 C 0,0 km/h (0 Bft)
06.01.2014 17:00 1,9 C 86 % 1016,9 hPa 0,0 l/m 0,0 km/h (0 Bft) N 360 -0,2 C 2,1 C 0,0 km/h (0 Bft)
06.01.2014 17:05 1,5 C 86 % 1016,8 hPa 0,0 l/m 0,0 km/h (0 Bft) N 360 -0,6 C 1,9 C 0,0 km/h (0 Bft)
06.01.2014 17:10 1,5 C 87 % 1016,8 hPa 0,0 l/m 0,0 km/h (0 Bft) N-NO 22 -0,4 C 1,6 C 0,0 km/h (0 Bft)
06.01.2014 17:15 1,4 C 87 % 1016,8 hPa 0,0 l/m 0,0 km/h (0 Bft) N 360 -0,5 C 1,4 C 0,0 km/h (0 Bft)
06.01.2014 17:20 1,4 C 88 % 1016,8 hPa 0,0 l/m 0,0 km/h (0 Bft) N-NW 337 -0,4 C 1,3 C 0,0 km/h (0 Bft)
06.01.2014 17:25 1,5 C 88 % 1016,8 hPa 0,0 l/m 0,0 km/h (0 Bft) N 360 -0,3 C 1,2 C 0,0 km/h (0 Bft)
06.01.2014 17:30 1,1 C 88 % 1016,8 hPa 0,0 l/m 0,0 km/h (0 Bft) NW 315 -0,7 C 1,2 C 0,0 km/h (0 Bft)
06.01.2014 17:33 1,2 C 89 % 1016,8 hPa 0,0 l/m 0,0 km/h (0 Bft) N 360 -0,4 C 1,1 C 0,0 km/h (0 Bft)
06.01.2014 17:35 1,2 C 89 % 1016,8 hPa 0,0 l/m 0,0 km/h (0 Bft) N 360 -0,4 C 1,1 C 0,0 km/h (0 Bft)
06.01.2014 17:40 1,7 C 89 % 1016,8 hPa 0,0 l/m 0,0 km/h (0 Bft) N-NO 22 0,1 C 1,3 C 0,0 km/h (0 Bft)
06.01.2014 17:46 1,8 C 89 % 1016,8 hPa 0,0 l/m 0,2 km/h (0 Bft) NO 45 0,2 C 1,5 C 0,0 km/h (0 Bft)
06.01.2014 17:50 1,8 C 89 % 1016,8 hPa 0,0 l/m 0,2 km/h (0 Bft) N-NO 22 0,2 C 1,6 C 0,0 km/h (0 Bft)
06.01.2014 17:55 1,9 C 89 % 1016,8 hPa 0,0 l/m 0,0 km/h (0 Bft) N 360 0,3 C 1,7 C 0,0 km/h (0 Bft)
06.01.2014 18:00 1,7 C 89 % 1016,8 hPa 0,0 l/m 0,2 km/h (0 Bft) SO 135 0,1 C 1,8 C 0,0 km/h (0 Bft)
06.01.2014 18:05 1,7 C 89 % 1016,4 hPa 0,0 l/m 0,2 km/h (0 Bft) O-SO 112 0,1 C 1,9 C 0,0 km/h (0 Bft)
06.01.2014 18:10 1,6 C 89 % 1016,4 hPa 0,0 l/m 0,0 km/h (0 Bft) SO 135 -0,0 C 2,0 C 0,0 km/h (0 Bft)
06.01.2014 18:15 1,6 C 89 % 1016,4 hPa 0,0 l/m 0,0 km/h (0 Bft) SO 135 -0,0 C 2,0 C 0,0 km/h (0 Bft)
06.01.2014 18:20 2,1 C 88 % 1016,4 hPa 0,0 l/m 0,5 km/h (0 Bft) N-NW 337 0,3 C 2,1 C 2,4 km/h (1 Bft)
06.01.2014 18:25 2,1 C 88 % 1016,2 hPa 0,0 l/m 0,5 km/h (0 Bft) NO 45 0,3 C 2,2 C 2,7 km/h (1 Bft)
06.01.2014 18:30 1,9 C 88 % 1016,2 hPa 0,0 l/m 0,3 km/h (0 Bft) O-NO 67 0,1 C 2,2 C 1,8 km/h (1 Bft)
06.01.2014 18:35 1,8 C 88 % 1016,2 hPa 0,0 l/m 0,3 km/h (0 Bft) W-SW 247 0,0 C 2,1 C 0,0 km/h (0 Bft)
06.01.2014 18:40 1,6 C 88 % 1016,2 hPa 0,0 l/m 0,2 km/h (0 Bft) N-NW 337 -0,2 C 2,1 C 0,0 km/h (0 Bft)
06.01.2014 18:45 1,4 C 88 % 1016,0 hPa 0,0 l/m 0,2 km/h (0 Bft) N-NO 22 -0,4 C 1,9 C 0,0 km/h (0 Bft)
06.01.2014 18:50 1,7 C 88 % 1016,0 hPa 0,0 l/m 0,8 km/h (0 Bft) O-NO 67 -0,1 C 1,8 C 0,0 km/h (0 Bft)
06.01.2014 18:55 1,5 C 88 % 1016,0 hPa 0,0 l/m 0,8 km/h (0 Bft) N-NO 22 -0,3 C 1,7 C 0,0 km/h (0 Bft)
06.01.2014 19:00 1,0 C 88 % 1016,0 hPa 0,0 l/m 0,2 km/h (0 Bft) O 90 -0,8 C 1,5 C 0,0 km/h (0 Bft)
06.01.2014 19:05 0,9 C 88 % 1015,6 hPa 0,0 l/m 0,3 km/h (0 Bft) W-SW 247 -0,9 C 1,3 C 0,0 km/h (0 Bft)
06.01.2014 19:10 0,8 C 88 % 1015,6 hPa 0,0 l/m 0,5 km/h (0 Bft) W-SW 247 -1,0 C 1,1 C 4,2 km/h (1 Bft)
06.01.2014 19:15 0,8 C 89 % 1015,6 hPa 0,0 l/m 0,5 km/h (0 Bft) S 180 -0,8 C 1,0 C 0,0 km/h (0 Bft)
06.01.2014 19:20 0,8 C 89 % 1015,6 hPa 0,0 l/m 0,8 km/h (0 Bft) S-SW 202 -0,8 C 1,0 C 0,0 km/h (0 Bft)
06.01.2014 19:25 1,3 C 89 % 1015,5 hPa 0,0 l/m 1,0 km/h (0 Bft) W-NW 292 -0,3 C 1,3 C 2,3 km/h (1 Bft)
06.01.2014 19:30 1,3 C 89 % 1015,5 hPa 0,0 l/m 0,8 km/h (0 Bft) W-NW 292 -0,3 C 1,7 C 0,0 km/h (0 Bft)
06.01.2014 19:35 1,5 C 89 % 1015,5 hPa 0,0 l/m 1,0 km/h (0 Bft) O-SO 112 -0,1 C 1,8 C 0,0 km/h (0 Bft)
06.01.2014 19:40 1,9 C 89 % 1015,5 hPa 0,0 l/m 1,0 km/h (0 Bft) S 180 0,3 C 1,9 C 1,6 km/h (1 Bft)
06.01.2014 19:45 2,3 C 89 % 1015,0 hPa 0,0 l/m 1,0 km/h (0 Bft) S 180 0,7 C 2,3 C 3,1 km/h (1 Bft)
06.01.2014 19:50 2,4 C 87 % 1015,0 hPa 0,0 l/m 3,5 km/h (1 Bft) O 90 0,5 C 2,3 C 8,2 km/h (2 Bft)
06.01.2014 19:55 2,8 C 86 % 1015,0 hPa 0,0 l/m 4,3 km/h (1 Bft) O 90 0,7 C 2,1 C 0,0 km/h (0 Bft)
06.01.2014 20:00 2,8 C 84 % 1015,0 hPa 0,0 l/m 3,1 km/h (1 Bft) SO 135 0,4 C 2,7 C 1,6 km/h (1 Bft)
06.01.2014 20:05 2,0 C 83 % 1014,8 hPa 0,0 l/m 1,4 km/h (1 Bft) S-SO 157 -0,6 C 2,8 C 0,0 km/h (0 Bft)
06.01.2014 20:10 2,3 C 83 % 1014,8 hPa 0,0 l/m 1,8 km/h (1 Bft) NO 45 -0,3 C 2,4 C 0,0 km/h (0 Bft)
06.01.2014 20:15 2,8 C 83 % 1014,8 hPa 0,0 l/m 2,6 km/h (1 Bft) SO 135 0,2 C 2,5 C 4,8 km/h (1 Bft)
06.01.2014 20:20 1,6 C 83 % 1014,8 hPa 0,0 l/m 2,7 km/h (1 Bft) SO 135 -1,0 C 2,3 C 3,1 km/h (1 Bft)
06.01.2014 20:25 1,6 C 84 % 1014,5 hPa 0,0 l/m 1,9 km/h (1 Bft) S 180 -0,8 C 2,3 C 0,0 km/h (0 Bft)
06.01.2014 20:30 1,5 C 85 % 1014,5 hPa 0,0 l/m 0,2 km/h (0 Bft) S 180 -0,7 C 2,2 C 0,0 km/h (0 Bft)
06.01.2014 20:35 1,3 C 85 % 1014,5 hPa 0,0 l/m 0,3 km/h (0 Bft) SO 135 -0,9 C 2,0 C 4,8 km/h (1 Bft)
06.01.2014 20:40 3,9 C 85 % 1014,5 hPa 0,0 l/m 3,9 km/h (1 Bft) SO 135 1,6 C 1,9 C 9,8 km/h (2 Bft)
06.01.2014 20:45 4,9 C 80 % 1014,6 hPa 0,0 l/m 6,3 km/h (2 Bft) O-SO 112 1,7 C 2,2 C 8,5 km/h (2 Bft)
06.01.2014 20:50 4,7 C 76 % 1014,6 hPa 0,0 l/m 6,6 km/h (2 Bft) O-SO 112 0,8 C 3,3 C 6,1 km/h (2 Bft)
06.01.2014 20:55 5,1 C 75 % 1014,6 hPa 0,0 l/m 5,8 km/h (2 Bft) SO 135 1,0 C 3,9 C 2,9 km/h (1 Bft)
06.01.2014 21:00 5,5 C 72 % 1014,6 hPa 0,0 l/m 4,0 km/h (1 Bft) O 90 0,9 C 4,3 C 6,6 km/h (2 Bft)
06.01.2014 21:05 4,0 C 71 % 1014,6 hPa 0,0 l/m 2,4 km/h (1 Bft) W 270 -0,8 C 4,6 C 0,0 km/h (0 Bft)
06.01.2014 21:10 2,3 C 75 % 1014,6 hPa 0,0 l/m 0,8 km/h (0 Bft) O 90 -1,7 C 3,5 C 1,9 km/h (1 Bft)
06.01.2014 21:15 2,1 C 76 % 1014,6 hPa 0,0 l/m 0,3 km/h (0 Bft) NO 45 -1,7 C 2,9 C 0,0 km/h (0 Bft)
06.01.2014 21:20 3,6 C 78 % 1014,6 hPa 0,0 l/m 2,3 km/h (1 Bft) O-NO 67 0,1 C 2,7 C 3,4 km/h (1 Bft)
06.01.2014 21:25 2,6 C 78 % 1014,6 hPa 0,0 l/m 2,4 km/h (1 Bft) W 270 -0,8 C 2,7 C 0,0 km/h (0 Bft)
06.01.2014 21:30 1,8 C 79 % 1014,6 hPa 0,0 l/m 1,0 km/h (0 Bft) S 180 -1,4 C 2,3 C 4,2 km/h (1 Bft)
06.01.2014 21:35 2,0 C 80 % 1014,6 hPa 0,0 l/m 0,8 km/h (0 Bft) SO 135 -1,1 C 2,4 C 0,0 km/h (0 Bft)
06.01.2014 21:40 3,1 C 82 % 1014,6 hPa 0,0 l/m 1,9 km/h (1 Bft) O 90 0,3 C 2,7 C 5,3 km/h (1 Bft)
06.01.2014 21:45 3,2 C 83 % 1014,8 hPa 0,0 l/m 1,9 km/h (1 Bft) SO 135 0,6 C 3,1 C 2,4 km/h (1 Bft)
06.01.2014 21:50 2,6 C 83 % 1014,8 hPa 0,0 l/m 1,4 km/h (1 Bft) S-SW 202 0,0 C 3,4 C 0,0 km/h (0 Bft)
06.01.2014 21:55 2,5 C 83 % 1014,8 hPa 0,0 l/m 1,0 km/h (0 Bft) O-NO 67 -0,1 C 3,4 C 3,2 km/h (1 Bft)
06.01.2014 22:00 2,7 C 84 % 1014,8 hPa 0,0 l/m 0,8 km/h (0 Bft) N-NW 337 0,3 C 3,5 C 0,0 km/h (0 Bft)
06.01.2014 22:05 2,6 C 84 % 1014,6 hPa 0,0 l/m 0,8 km/h (0 Bft) W 270 0,2 C 3,5 C 0,0 km/h (0 Bft)
06.01.2014 22:10 2,7 C 85 % 1014,6 hPa 0,0 l/m 0,6 km/h (0 Bft) N 360 0,4 C 3,4 C 3,2 km/h (1 Bft)
06.01.2014 22:15 2,7 C 85 % 1014,6 hPa 0,0 l/m 0,8 km/h (0 Bft) NO 45 0,4 C 3,3 C 3,4 km/h (1 Bft)
06.01.2014 22:20 3,2 C 85 % 1014,6 hPa 0,0 l/m 3,2 km/h (1 Bft) N-NO 22 0,9 C 3,2 C 5,1 km/h (1 Bft)
06.01.2014 22:25 2,9 C 85 % 1014,6 hPa 0,0 l/m 3,4 km/h (1 Bft) S 180 0,6 C 3,4 C 4,0 km/h (1 Bft)
06.01.2014 22:30 2,8 C 85 % 1014,6 hPa 0,0 l/m 3,1 km/h (1 Bft) S-SO 157 0,5 C 3,3 C 3,7 km/h (1 Bft)
06.01.2014 22:35 2,9 C 85 % 1014,6 hPa 0,0 l/m 2,9 km/h (1 Bft) S 180 0,6 C 3,4 C 0,0 km/h (0 Bft)
06.01.2014 22:40 2,7 C 85 % 1014,6 hPa 0,0 l/m 1,6 km/h (1 Bft) O 90 0,4 C 3,5 C 3,4 km/h (1 Bft)
06.01.2014 22:45 3,0 C 84 % 1014,8 hPa 0,0 l/m 1,4 km/h (1 Bft) N-NW 337 0,6 C 3,4 C 3,4 km/h (1 Bft)
06.01.2014 22:50 2,7 C 85 % 1014,8 hPa 0,0 l/m 1,4 km/h (1 Bft) O-NO 67 0,4 C 3,4 C 4,0 km/h (1 Bft)
06.01.2014 22:55 3,0 C 84 % 1014,8 hPa 0,0 l/m 1,3 km/h (1 Bft) N-NW 337 0,6 C 3,4 C 0,0 km/h (0 Bft)
06.01.2014 23:00 2,9 C 85 % 1014,8 hPa 0,0 l/m 1,3 km/h (1 Bft) O 90 0,6 C 3,4 C 0,0 km/h (0 Bft)
06.01.2014 23:05 3,6 C 84 % 1015,2 hPa 0,0 l/m 2,1 km/h (1 Bft) S-SO 157 1,2 C 3,4 C 7,6 km/h (2 Bft)
06.01.2014 23:10 4,5 C 83 % 1015,2 hPa 0,0 l/m 5,0 km/h (1 Bft) O-SO 112 1,9 C 3,2 C 8,2 km/h (2 Bft)
06.01.2014 23:15 3,9 C 81 % 1015,2 hPa 0,0 l/m 5,3 km/h (1 Bft) S 180 0,9 C 3,5 C 6,1 km/h (2 Bft)
06.01.2014 23:20 4,2 C 81 % 1015,2 hPa 0,0 l/m 3,9 km/h (1 Bft) O-NO 67 1,2 C 3,7 C 5,0 km/h (1 Bft)
06.01.2014 23:25 4,4 C 80 % 1015,1 hPa 0,0 l/m 3,9 km/h (1 Bft) O-SO 112 1,3 C 3,7 C 5,5 km/h (1 Bft)
06.01.2014 23:30 3,5 C 79 % 1015,1 hPa 0,0 l/m 2,9 km/h (1 Bft) S 180 0,2 C 4,2 C 2,4 km/h (1 Bft)
06.01.2014 23:35 3,0 C 79 % 1015,1 hPa 0,0 l/m 2,1 km/h (1 Bft) O 90 -0,3 C 4,2 C 2,3 km/h (1 Bft)
06.01.2014 23:40 4,6 C 82 % 1015,1 hPa 0,0 l/m 3,1 km/h (1 Bft) NO 45 1,8 C 4,1 C 4,7 km/h (1 Bft)
06.01.2014 23:45 4,9 C 81 % 1015,4 hPa 0,0 l/m 3,2 km/h (1 Bft) S 180 1,9 C 4,7 C 3,5 km/h (1 Bft)
06.01.2014 23:50 4,6 C 79 % 1015,4 hPa 0,0 l/m 1,6 km/h (1 Bft) W-NW 292 1,3 C 5,4 C 1,9 km/h (1 Bft)
06.01.2014 23:55 3,5 C 79 % 1015,4 hPa 0,0 l/m 1,3 km/h (1 Bft) W-NW 292 0,2 C 5,2 C 2,3 km/h (1 Bft)
_ Min-Zeit 05:50 21:05 20:40 - 18:15 - - 05:50 05:50 23:00
Minimum _ -3,5 C 71 % 1014,5 hPa - 0,0 km/h (0 Bft) - - -4,0 C -3,9 C 0,0 km/h (0 Bft)
_ Max-Zeit 14:15 11:20 12:40 23:55 20:50 - - 14:15 14:25 20:40
Maximum _ 7,2 C 97 % 1017,9 hPa 0,0 l/m 6,6 km/h
O-SO (2 Bft)
- - 4,7 C 14,9 C 9,8 km/h
SO (2 Bft)
Durchschnitt _ 0,8 C 91 % 1016,4 hPa #0,0 l/m 1,1 km/h (0 Bft) O-NO - -0,5 C 1,4 C 1,5 km/h (1 Bft)